Terug naar catalogus

DELTA 1 DEB

ActiefSSO
NORAD 12204·DEBRIS·🇺🇸 United States

Gelanceerd Mar 5, 1978 vanaf Vandenberg Space Force Base

Loading…

Volgende Passages (komende 24 uur)

TLE

VersSource: Space-Track

Epoch: Sep 14, 2026, 13:31 UTC

1 12204U 78026AV  26257.56344757  .00000247  00000-0  10752-3 0  9996
2 12204  98.7425 282.3073 0077657 317.8948  41.6284 14.31018034370430

Volg DELTA 1 DEB in realtime met AllMySat

Download on the App Store